CW5404 Weather Reports


Display with metric or nautical units.
time (UTC)temp
F
wind
direction
speed
MPH
gust
MPH
rain 1hr
in
rain 24hr
in
rain mn
in
humidity
%
barometer
mb
20260510081923 54 360 0.0 0.0 0.00 0.00 0.00 85 1015.6
20260510081423 54 77 0.0 0.0 0.00 0.00 0.00 84 1015.6
20260510080923 54 76 0.0 0.0 0.00 0.00 0.00 84 1015.7
20260510080423 54 76 0.0 0.0 0.00 0.00 0.00 84 1015.7
20260510075923 54 76 0.0 0.0 0.00 0.00 0.00 83 1015.7
20260510075423 54 76 0.0 0.0 0.00 0.00 0.00 82 1015.6
20260510074923 55 76 0.0 0.0 0.00 0.00 0.00 82 1015.6
20260510074423 55 76 0.0 0.0 0.00 0.00 0.00 82 1015.6
20260510073923 55 76 0.0 0.0 0.00 0.00 0.00 81 1015.6
20260510073423 55 76 0.0 0.0 0.00 0.00 0.00 81 1015.6
20260510072922 55 76 0.0 0.0 0.00 0.00 0.00 81 1015.6
20260510072422 55 76 0.0 0.0 0.00 0.00 0.00 80 1015.5
20260510071922 55 76 0.0 0.0 0.00 0.00 0.00 80 1015.5
20260510071423 55 76 0.0 0.0 0.00 0.00 0.00 79 1015.5
20260510065922 56 76 0.0 0.0 0.00 0.00 0.00 77 1015.4
20260510065423 56 76 0.0 0.0 0.00 0.00 0.00 77 1015.4
20260510064923 56 77 0.0 1.0 0.00 0.00 0.00 76 1015.4
20260510064423 56 77 0.0 1.0 0.00 0.00 0.00 76 1015.4
20260510063923 56 76 0.0 2.0 0.00 0.00 0.00 76 1015.2
20260510063423 57 76 1.0 2.0 0.00 0.00 0.00 75 1015.2
20260510062922 57 74 0.0 0.0 0.00 0.00 0.00 75 1015.2
20260510062422 57 74 0.0 0.0 0.00 0.00 0.00 74 1015.1
20260510061922 57 74 0.0 0.0 0.00 0.00 0.00 74 1015.1
20260510061423 58 74 0.0 1.0 0.00 0.00 0.00 74 1015.1
20260510055922 59 87 0.0 0.0 0.00 0.00 0.00 71 1015.1
20260510055423 59 88 0.0 0.0 0.00 0.00 0.00 70 1015.1
20260510054922 60 87 0.0 0.0 0.00 0.00 0.00 69 1015.1
20260510054422 60 87 0.0 0.0 0.00 0.00 0.00 69 1015.1
20260510053922 60 87 0.0 0.0 0.00 0.00 0.00 69 1015.1
20260510053422 60 88 0.0 0.0 0.00 0.00 0.00 69 1015.1
20260510052922 61 87 0.0 0.0 0.00 0.00 0.00 68 1015.1
20260510052422 61 87 0.0 0.0 0.00 0.00 0.00 67 1015.0
20260510051922 61 87 0.0 2.0 0.00 0.00 0.00 66 1015.0
20260510051422 62 87 0.0 2.0 0.00 0.00 0.00 65 1015.0
20260510050922 62 182 0.0 2.0 0.00 0.00 0.00 65 1014.6
20260510045922 63 284 0.0 0.0 0.00 0.00 0.00 60 1014.6
20260510045422 64 284 0.0 0.0 0.00 0.00 0.00 59 1014.6
20260510044922 64 284 0.0 0.0 0.00 0.00 0.00 57 1014.6
20260510044421 65 284 0.0 0.0 0.00 0.00 0.00 56 1014.6
20260510043922 65 284 0.0 0.0 0.00 0.00 0.00 55 1014.4
20260510043422 65 284 0.0 1.0 0.00 0.00 0.00 53 1014.4
20260510042922 66 284 0.0 1.0 0.00 0.00 0.00 53 1014.4
20260510041921 66 238 0.0 0.0 0.00 0.00 0.00 53 1014.2
20260510041421 66 238 0.0 1.0 0.00 0.00 0.00 53 1014.2
20260510040921 66 238 0.0 1.0 0.00 0.00 0.00 53 1014.1
20260510040421 66 238 0.0 1.0 0.00 0.00 0.00 53 1014.1
20260510035921 67 238 0.0 2.0 0.00 0.00 0.00 53 1014.2
20260510035421 67 230 0.0 2.0 0.00 0.00 0.00 52 1014.0
20260510034922 67 286 0.0 0.0 0.00 0.00 0.00 51 1014.0
20260510034421 68 286 0.0 1.0 0.00 0.00 0.00 50 1014.0
20260510033921 68 286 0.0 1.0 0.00 0.00 0.00 48 1013.8
20260510030921 70 341 0.0 0.0 0.00 0.00 0.00 45 1013.8
20260510030421 70 344 0.0 0.0 0.00 0.00 0.00 47 1013.8
20260510025921 70 344 0.0 0.0 0.00 0.00 0.00 47 1013.8
20260510025421 71 344 0.0 0.0 0.00 0.00 0.00 49 1013.6
20260510024921 71 344 0.0 0.0 0.00 0.00 0.00 48 1013.6
20260510024421 72 344 0.0 0.0 0.00 0.00 0.00 48 1013.7
20260510023921 72 344 0.0 0.0 0.00 0.00 0.00 46 1013.7
20260510023421 72 344 0.0 0.0 0.00 0.00 0.00 47 1013.7
20260510022921 72 344 0.0 1.0 0.00 0.00 0.00 44 1013.7
20260510021921 73 345 0.0 0.0 0.00 0.00 0.00 42 1013.7
20260510021421 73 338 0.0 0.0 0.00 0.00 0.00 40 1013.7
20260510020920 74 338 0.0 0.0 0.00 0.00 0.00 36 1013.7
20260510020420 74 338 0.0 0.0 0.00 0.00 0.00 35 1013.7
20260510015920 74 338 0.0 0.0 0.00 0.00 0.00 37 1013.7
20260510015420 74 338 0.0 0.0 0.00 0.00 0.00 36 1013.7
20260510014920 74 338 0.0 0.0 0.00 0.00 0.00 37 1013.7
20260510013920 75 338 0.0 0.0 0.00 0.00 0.00 36 1013.8
20260510013420 75 338 0.0 1.0 0.00 0.00 0.00 38 1013.8
20260510012920 75 338 0.0 1.0 0.00 0.00 0.00 34 1013.8
20260510012421 75 338 0.0 0.0 0.00 0.00 0.00 35 1014.0
20260510011920 75 338 0.0 1.0 0.00 0.00 0.00 34 1014.0
20260510011420 75 338 0.0 2.0 0.00 0.00 0.00 35 1014.0
20260510010920 75 338 0.0 2.0 0.00 0.00 0.00 34 1014.1
20260510010420 76 142 0.0 2.0 0.00 0.00 0.00 35 1014.1
20260510005920 76 141 0.0 2.0 0.00 0.00 0.00 34 1014.1
20260510005420 76 142 1.0 2.0 0.00 0.00 0.00 33 1014.1
20260510004920 76 140 1.0 2.0 0.00 0.00 0.00 32 1014.1
20260510004420 76 75 1.0 2.0 0.00 0.00 0.00 36 1014.1
20260510003920 76 72 0.0 2.0 0.00 0.00 0.00 33 1014.1
20260510003420 76 74 0.0 2.0 0.00 0.00 0.00 31 1014.1
20260510002920 76 46 0.0 2.0 0.00 0.00 0.00 32 1014.1
20260510002420 76 48 2.0 2.0 0.00 0.00 0.00 29 1014.2
20260510001920 76 133 0.0 2.0 0.00 0.00 0.00 27 1014.2
20260510001420 76 133 0.0 2.0 0.00 0.00 0.00 27 1014.2
20260510000919 76 30 0.0 5.0 0.00 0.00 0.00 27 1014.5
20260510000419 76 15 0.0 5.0 0.00 0.00 0.00 28 1014.5
20260509235920 76 10 5.0 5.0 0.00 0.00 0.00 26 1014.5
20260509235419 76 91 1.0 5.0 0.00 0.00 0.00 26 1014.6
20260509234919 76 121 3.0 8.0 0.00 0.00 0.00 28 1014.6
20260509234420 76 56 1.0 8.0 0.00 0.00 0.00 26 1014.6
20260509233920 77 38 2.0 5.0 0.00 0.00 0.00 29 1014.7
20260509232919 76 106 2.0 5.0 0.00 0.00 0.00 28 1014.7
20260509232420 76 94 0.0 5.0 0.00 0.00 0.00 30 1014.7
20260509231919 76 63 2.0 5.0 0.00 0.00 0.00 31 1014.7
20260509230920 75 49 1.0 6.0 0.00 0.00 0.00 32 1015.0
20260509230419 75 31 0.0 6.0 0.00 0.00 0.00 35 1015.0
20260509225919 75 37 1.0 6.0 0.00 0.00 0.00 34 1015.0
20260509225419 75 73 0.0 5.0 0.00 0.00 0.00 36 1015.2
20260509224919 75 61 0.0 7.0 0.00 0.00 0.00 36 1015.2
20260509224419 75 42 1.0 7.0 0.00 0.00 0.00 36 1015.2
20260509223919 75 54 0.0 6.0 0.00 0.00 0.00 38 1015.4
20260509223419 75 190 2.0 5.0 0.00 0.00 0.00 41 1015.4
20260509222919 75 127 0.0 7.0 0.00 0.00 0.00 41 1015.4
20260509222419 75 59 2.0 7.0 0.00 0.00 0.00 43 1015.7
20260509221919 75 31 7.0 7.0 0.00 0.00 0.00 41 1015.7
20260509221419 75 45 5.0 7.0 0.00 0.00 0.00 42 1015.7
20260509220919 75 59 1.0 7.0 0.00 0.00 0.00 44 1016.1
20260509220419 75 71 0.0 6.0 0.00 0.00 0.00 41 1016.1
20260509215919 75 56 2.0 5.0 0.00 0.00 0.00 40 1016.1
20260509215419 75 49 0.0 8.0 0.00 0.00 0.00 38 1016.2
20260509211419 74 40 2.0 6.0 0.00 0.00 0.00 42 1016.7
20260509210419 73 166 0.0 5.0 0.00 0.00 0.00 46 1016.8
20260509205919 72 52 1.0 5.0 0.00 0.00 0.00 46 1016.8
20260509204919 72 69 3.0 10.0 0.00 0.00 0.00 46 1017.0
20260509204418 72 38 2.0 7.0 0.00 0.00 0.00 45 1017.0
20260509203918 72 84 2.0 5.0 0.00 0.00 0.00 47 1017.2
20260509203419 72 325 1.0 5.0 0.00 0.00 0.00 54 1017.2
20260509202918 71 5 0.0 7.0 0.00 0.00 0.00 55 1017.2
20260509202418 71 68 3.0 7.0 0.00 0.00 0.00 53 1017.3
20260509201918 71 337 2.0 7.0 0.00 0.00 0.00 50 1017.3
20260509201418 71 28 0.0 5.0 0.00 0.00 0.00 53 1017.3
20260509200918 70 360 0.0 5.0 0.00 0.00 0.00 58 1017.7
20260509200418 69 58 2.0 6.0 0.00 0.00 0.00 59 1017.7
20260509195918 69 26 3.0 6.0 0.00 0.00 0.00 55 1017.7
20260509195418 69 64 3.0 6.0 0.00 0.00 0.00 59 1017.8
20260509194918 69 71 0.0 6.0 0.00 0.00 0.00 55 1017.8
20260509194418 70 78 2.0 3.0 0.00 0.00 0.00 59 1017.8
20260509193918 70 48 1.0 3.0 0.00 0.00 0.00 61 1018.0
20260509193418 69 65 0.0 4.0 0.00 0.00 0.00 60 1018.0
20260509192918 68 20 1.0 6.0 0.00 0.00 0.00 61 1018.0
20260509192418 68 57 2.0 7.0 0.00 0.00 0.00 58 1018.3
20260509191918 68 77 4.0 7.0 0.00 0.00 0.00 60 1018.3
20260509191417 68 298 1.0 6.0 0.00 0.00 0.00 63 1018.3
20260509190917 67 326 1.0 6.0 0.00 0.00 0.00 61 1018.4
20260509190417 67 254 0.0 7.0 0.00 0.00 0.00 61 1018.4
20260509185417 67 36 1.0 7.0 0.00 0.00 0.00 61 1018.7
20260509184917 67 58 2.0 7.0 0.00 0.00 0.00 62 1018.7
20260509184418 67 161 0.0 6.0 0.00 0.00 0.00 62 1018.7
20260509183918 67 51 0.0 6.0 0.00 0.00 0.00 64 1018.7
20260509183417 66 355 1.0 6.0 0.00 0.00 0.00 64 1018.7
20260509182917 67 22 1.0 5.0 0.00 0.00 0.00 62 1018.7
20260509182417 66 328 0.0 5.0 0.00 0.00 0.00 66 1018.8
20260509181917 65 37 5.0 5.0 0.00 0.00 0.00 65 1018.8
20260509181417 65 46 4.0 8.0 0.00 0.00 0.00 65 1018.8
20260509180917 65 66 3.0 8.0 0.00 0.00 0.00 62 1018.9
20260509180417 65 30 0.0 4.0 0.00 0.00 0.00 65 1018.9
20260509175917 64 87 0.0 5.0 0.00 0.00 0.00 65 1018.8
20260509175417 64 36 0.0 5.0 0.00 0.00 0.00 65 1019.1
20260509174917 63 75 2.0 6.0 0.00 0.00 0.00 67 1019.1
20260509174418 63 76 1.0 6.0 0.00 0.00 0.00 67 1019.1
20260509173417 64 56 2.0 3.0 0.00 0.00 0.00 67 1019.3
20260509172917 63 41 0.0 3.0 0.00 0.00 0.00 69 1019.3
20260509172417 63 52 0.0 3.0 0.00 0.00 0.00 70 1019.2
20260509171917 62 105 0.0 5.0 0.00 0.00 0.00 70 1019.2
20260509171417 62 343 0.0 5.0 0.00 0.00 0.00 70 1019.2
20260509170417 62 82 0.0 5.0 0.00 0.00 0.00 72 1019.3
20260509165917 61 198 1.0 5.0 0.00 0.00 0.00 72 1019.2
20260509165417 61 60 1.0 5.0 0.00 0.00 0.00 74 1019.5
20260509164917 61 67 3.0 5.0 0.00 0.00 0.00 75 1019.5
20260509164417 60 184 2.0 5.0 0.00 0.00 0.00 75 1019.5
20260509163917 60 38 3.0 4.0 0.00 0.00 0.00 75 1019.7
20260509163417 60 82 3.0 4.0 0.00 0.00 0.00 77 1019.7
20260509162917 59 75 3.0 4.0 0.00 0.00 0.00 75 1019.7
20260509162417 59 127 0.0 4.0 0.00 0.00 0.00 77 1019.8
20260509161917 59 53 2.0 5.0 0.00 0.00 0.00 78 1019.8
20260509161417 58 22 0.0 5.0 0.00 0.00 0.00 78 1019.8
20260509160917 58 74 0.0 4.0 0.00 0.00 0.00 79 1020.0
20260509160417 58 54 1.0 4.0 0.00 0.00 0.00 79 1020.0
20260509155917 58 42 4.0 4.0 0.00 0.00 0.00 79 1020.0
20260509155417 58 65 1.0 4.0 0.00 0.00 0.00 79 1020.1
20260509154917 58 66 0.0 4.0 0.00 0.00 0.00 79 1020.1
20260509153917 57 59 0.0 2.0 0.00 0.00 0.00 82 1020.0
20260509153417 57 49 0.0 2.0 0.00 0.00 0.00 82 1020.0
20260509152917 57 58 0.0 0.0 0.00 0.00 0.00 83 1020.0
20260509152417 57 77 0.0 0.0 0.00 0.00 0.00 83 1020.3
20260509151917 56 230 0.0 0.0 0.00 0.00 0.00 85 1020.2
20260509151417 56 232 0.0 0.0 0.00 0.00 0.00 86 1020.2
20260509150917 55 232 0.0 0.0 0.00 0.00 0.00 86 1020.3
20260509150417 54 232 0.0 0.0 0.00 0.00 0.00 86 1020.3
20260509145917 54 232 0.0 0.0 0.00 0.00 0.00 87 1020.3
20260509145417 53 232 0.0 0.0 0.00 0.00 0.00 90 1020.4
20260509144917 53 232 0.0 0.0 0.00 0.00 0.00 91 1020.4
20260509144417 52 232 0.0 0.0 0.00 0.00 0.00 91 1020.4
20260509143917 52 232 0.0 0.0 0.00 0.00 0.00 94 1020.3
20260509143417 51 232 0.0 0.0 0.00 0.00 0.00 95 1020.3
20260509142417 50 233 0.0 0.0 0.00 0.00 0.00 95 1020.1
20260509141917 50 233 0.0 0.0 0.00 0.00 0.00 97 1020.1
20260509141417 49 360 0.0 0.0 0.00 0.00 0.00 99 1020.1
20260509140917 49 360 0.0 0.0 0.00 0.00 0.00 100 1020.1
20260509140417 48 360 0.0 0.0 0.00 0.00 0.00 100 1020.1
20260509135917 47 360 0.0 0.0 0.00 0.00 0.00 100 1020.1
20260509135417 47 360 0.0 0.0 0.00 0.00 0.00 100 1020.2
20260509134917 46 360 0.0 0.0 0.00 0.00 0.00 97 1020.2
20260509134417 46 232 0.0 0.0 0.00 0.00 0.00 96 1020.2
20260509133917 45 360 0.0 0.0 0.00 0.00 0.00 95 1020.1
20260509133417 45 232 0.0 0.0 0.00 0.00 0.00 95 1020.1
20260509132917 45 360 0.0 0.0 0.00 0.00 0.00 95 1020.1
20260509132417 45 360 0.0 0.0 0.00 0.00 0.00 95 1020.1
20260509131917 45 360 0.0 0.0 0.00 0.00 0.00 94 1020.1
20260509131417 45 232 0.0 0.0 0.00 0.00 0.00 94 1020.1
20260509130917 45 233 0.0 0.0 0.00 0.00 0.00 94 1020.1
20260509130417 45 233 0.0 0.0 0.00 0.00 0.00 94 1020.1
20260509125917 45 233 0.0 0.0 0.00 0.00 0.00 94 1020.1
20260509124917 45 233 0.0 0.0 0.00 0.00 0.00 93 1020.0
20260509124417 45 233 0.0 0.0 0.00 0.00 0.00 93 1020.0
20260509123917 46 233 0.0 0.0 0.00 0.00 0.00 94 1020.2
20260509123417 46 233 0.0 0.0 0.00 0.00 0.00 93 1020.2
20260509122916 46 233 0.0 0.0 0.00 0.00 0.00 93 1020.2
20260509122417 46 233 0.0 0.0 0.00 0.00 0.00 93 1020.2
20260509121917 46 233 0.0 0.0 0.00 0.00 0.00 93 1020.2
20260509121416 46 233 0.0 0.0 0.00 0.00 0.00 93 1020.2
20260509120917 46 233 0.0 0.0 0.00 0.00 0.00 93 1020.4
20260509120417 46 233 0.0 0.0 0.00 0.00 0.00 92 1020.4
20260509115917 46 233 0.0 0.0 0.00 0.00 0.00 92 1020.4
20260509115417 46 233 0.0 0.0 0.00 0.00 0.00 92 1020.3
20260509114917 46 233 0.0 0.0 0.00 0.00 0.00 92 1020.3
20260509114416 46 233 0.0 0.0 0.00 0.00 0.00 92 1020.3
20260509113917 46 233 0.0 0.0 0.00 0.00 0.00 92 1020.4
20260509113416 46 233 0.0 0.0 0.00 0.00 0.00 92 1020.4
20260509112917 46 233 0.0 0.0 0.00 0.00 0.00 92 1020.4
20260509111917 46 233 0.0 0.0 0.00 0.00 0.00 92 1020.4
20260509111416 46 233 0.0 0.0 0.00 0.00 0.00 92 1020.4
20260509110916 46 233 0.0 0.0 0.00 0.00 0.00 91 1020.4
20260509110416 46 233 0.0 0.0 0.00 0.00 0.00 91 1020.4
20260509105916 46 232 0.0 0.0 0.00 0.00 0.00 91 1020.4
20260509104916 47 232 0.0 0.0 0.00 0.00 0.00 91 1020.7
20260509103917 47 233 0.0 0.0 0.00 0.00 0.00 91 1020.8
20260509103416 47 233 0.0 0.0 0.00 0.00 0.00 91 1020.8
20260509101416 47 232 0.0 0.0 0.00 0.00 0.00 90 1020.8
20260509092917 48 232 0.0 0.0 0.00 0.00 0.00 90 1020.8
20260509092416 48 232 0.0 0.0 0.00 0.00 0.00 90 1021.0
20260509090916 49 232 0.0 0.0 0.00 0.00 0.00 90 1021.1
20260509090416 49 232 0.0 0.0 0.00 0.00 0.00 89 1021.1
20260509085416 49 232 0.0 0.0 0.00 0.00 0.00 89 1021.2
20260509084916 49 232 0.0 0.0 0.00 0.00 0.00 89 1021.2
20260509083415 49 232 0.0 0.0 0.00 0.00 0.00 89 1021.2
20260509082915 49 232 0.0 0.0 0.00 0.00 0.00 89 1021.2
20260509082415 50 232 0.0 0.0 0.00 0.00 0.00 88 1021.3